TimeEDT,TemperatureF,Dew PointF,Humidity,Sea Level PressureIn,VisibilityMPH,Wind Direction,Wind SpeedMPH,Gust SpeedMPH,PrecipitationIn,Events,Conditions,WindDirDegrees,DateUTC
12:15 AM,73.4,71.6,94,29.89,10.0,Calm,Calm,-,N/A,,Mostly Cloudy,0,2012-10-16 04:15:00
12:35 AM,71.6,71.6,100,29.89,8.0,Calm,Calm,-,N/A,,Scattered Clouds,0,2012-10-16 04:35:00
12:55 AM,71.6,69.8,94,29.88,7.0,Calm,Calm,-,N/A,,Mostly Cloudy,0,2012-10-16 04:55:00
1:15 AM,71.6,69.8,94,29.88,9.0,NW,4.6,-,N/A,,Mostly Cloudy,320,2012-10-16 05:15:00
1:35 AM,71.6,69.8,94,29.87,9.0,NW,3.5,-,N/A,,Mostly Cloudy,320,2012-10-16 05:35:00
1:55 AM,71.6,69.8,94,29.88,9.0,Calm,Calm,-,N/A,,Mostly Cloudy,0,2012-10-16 05:55:00
2:15 AM,71.6,69.8,94,29.88,9.0,Calm,Calm,-,N/A,,Mostly Cloudy,0,2012-10-16 06:15:00
2:35 AM,71.6,71.6,100,29.88,9.0,Calm,Calm,-,N/A,,Mostly Cloudy,0,2012-10-16 06:35:00
2:55 AM,69.8,69.8,100,29.87,8.0,Calm,Calm,-,N/A,,Mostly Cloudy,0,2012-10-16 06:55:00
3:15 AM,69.8,69.8,100,29.87,8.0,Calm,Calm,-,N/A,,Mostly Cloudy,0,2012-10-16 07:15:00
3:35 AM,69.8,69.8,100,29.87,9.0,Calm,Calm,-,N/A,,Mostly Cloudy,0,2012-10-16 07:35:00
3:55 AM,69.8,69.8,100,29.87,8.0,Calm,Calm,-,N/A,,Mostly Cloudy,0,2012-10-16 07:55:00
4:15 AM,69.8,69.8,100,29.86,7.0,Calm,Calm,-,N/A,,Mostly Cloudy,0,2012-10-16 08:15:00
4:35 AM,69.8,69.8,100,29.86,8.0,Calm,Calm,-,N/A,,Scattered Clouds,0,2012-10-16 08:35:00
4:55 AM,69.8,69.8,100,29.86,7.0,Calm,Calm,-,N/A,,Mostly Cloudy,0,2012-10-16 08:55:00
5:15 AM,69.8,69.8,100,29.86,8.0,Calm,Calm,-,N/A,,Mostly Cloudy,0,2012-10-16 09:15:00
5:35 AM,69.8,69.8,100,29.86,8.0,Calm,Calm,-,N/A,,Mostly Cloudy,0,2012-10-16 09:35:00
5:55 AM,69.8,69.8,100,29.86,8.0,Calm,Calm,-,N/A,,Mostly Cloudy,0,2012-10-16 09:55:00
6:35 AM,68.0,68.0,100,29.86,8.0,Calm,Calm,-,N/A,,Mostly Cloudy,0,2012-10-16 10:35:00
6:55 AM,68.0,68.0,100,29.87,8.0,Calm,Calm,-,N/A,,Mostly Cloudy,0,2012-10-16 10:55:00
7:15 AM,68.0,68.0,100,29.87,7.0,Calm,Calm,-,N/A,,Mostly Cloudy,0,2012-10-16 11:15:00
7:30 AM,68.0,68.0,100,29.87,6.0,Calm,Calm,-,N/A,,Clear,0,2012-10-16 11:30:00
8:52 AM,71.6,68.0,88,29.90,9.0,North,4.6,-,N/A,,Clear,360,2012-10-16 12:52:00
9:53 AM,73.4,66.2,78,29.90,12.0,North,9.2,-,N/A,,Clear,360,2012-10-16 13:53:00
10:51 AM,77.0,66.2,69,29.89,12.0,NE,8.1,-,N/A,,Partly Cloudy,40,2012-10-16 14:51:00
11:00 AM,80.6,66.2,61,29.88,12.0,NNE,9.2,-,N/A,,Scattered Clouds,20,2012-10-16 15:00:00
12:50 PM,80.6,64.4,58,29.88,12.0,NNE,5.8,-,N/A,,Scattered Clouds,20,2012-10-16 16:50:00
1:50 PM,82.4,64.4,54,29.85,12.0,NNE,5.8,-,N/A,,Mostly Cloudy,20,2012-10-16 17:50:00
2:52 PM,82.4,64.4,54,29.83,12.0,NNE,5.8,-,N/A,,Mostly Cloudy,20,2012-10-16 18:52:00
3:35 PM,82.4,62.6,51,29.82,8.0,North,5.8,-,N/A,,Mostly Cloudy,350,2012-10-16 19:35:00
3:55 PM,84.2,64.4,51,29.82,8.0,NNE,4.6,-,N/A,,Partly Cloudy,20,2012-10-16 19:55:00
4:15 PM,84.2,62.6,48,29.81,8.0,NE,5.8,-,N/A,,Mostly Cloudy,40,2012-10-16 20:15:00
4:35 PM,82.4,62.6,51,29.81,8.0,NNE,8.1,-,N/A,,Scattered Clouds,20,2012-10-16 20:35:00
4:55 PM,82.4,62.6,51,29.81,9.0,North,5.8,-,N/A,,Partly Cloudy,360,2012-10-16 20:55:00
5:15 PM,82.4,64.4,54,29.81,8.0,NNE,6.9,-,N/A,,Partly Cloudy,30,2012-10-16 21:15:00
5:35 PM,82.4,64.4,54,29.81,7.0,NNE,8.1,-,N/A,,Partly Cloudy,30,2012-10-16 21:35:00
5:55 PM,82.4,62.6,51,29.82,8.0,NNE,5.8,-,N/A,,Clear,20,2012-10-16 21:55:00
6:15 PM,82.4,62.6,51,29.82,9.0,North,5.8,-,N/A,,Clear,10,2012-10-16 22:15:00
6:35 PM,80.6,62.6,54,29.83,9.0,North,4.6,-,N/A,,Clear,10,2012-10-16 22:35:00
6:55 PM,80.6,64.4,58,29.83,8.0,North,3.5,-,N/A,,Clear,350,2012-10-16 22:55:00
7:15 PM,78.8,62.6,57,29.83,10.0,North,3.5,-,N/A,,Clear,360,2012-10-16 23:15:00
7:35 PM,78.8,64.4,61,29.83,10.0,North,3.5,-,N/A,,Clear,10,2012-10-16 23:35:00
7:55 PM,78.8,62.6,57,29.84,10.0,North,4.6,-,N/A,,Clear,10,2012-10-16 23:55:00
8:15 PM,75.2,64.4,69,29.84,10.0,NE,4.6,-,N/A,,Mostly Cloudy,40,2012-10-17 00:15:00
8:35 PM,75.2,64.4,69,29.85,10.0,NE,4.6,-,N/A,,Mostly Cloudy,50,2012-10-17 00:35:00
8:55 PM,75.2,64.4,69,29.85,10.0,ENE,5.8,-,N/A,,Mostly Cloudy,60,2012-10-17 00:55:00
9:15 PM,75.2,64.4,69,29.85,10.0,ENE,4.6,-,N/A,,Scattered Clouds,70,2012-10-17 01:15:00
9:35 PM,73.4,64.4,73,29.86,10.0,East,5.8,-,N/A,,Partly Cloudy,80,2012-10-17 01:35:00
9:55 PM,73.4,64.4,73,29.86,10.0,ENE,4.6,-,N/A,,Clear,70,2012-10-17 01:55:00
10:15 PM,73.4,64.4,73,29.86,10.0,East,5.8,-,N/A,,Clear,80,2012-10-17 02:15:00
10:35 PM,71.6,64.4,78,29.86,10.0,East,4.6,-,N/A,,Clear,80,2012-10-17 02:35:00
10:55 PM,71.6,64.4,78,29.87,10.0,East,4.6,-,N/A,,Clear,80,2012-10-17 02:55:00
11:35 PM,69.8,64.4,83,29.87,10.0,NE,3.5,-,N/A,,Clear,50,2012-10-17 03:35:00
11:55 PM,69.8,64.4,83,29.87,10.0,NE,3.5,-,N/A,,Clear,40,2012-10-17 03:55:00